This is the latest recevied weather packets stored in our database for station/object W7MB. If no packets are shown the sender has not sent any weather packets the latest 1 day(s).
| Time | Temp. | Humidity | Pressure | Rain* | Wind** | Luminosity | Snow |
|---|---|---|---|---|---|---|---|
| 1836274497 | 16.67° C | 65% | 1013.1 hPa | 0 mm | 0 m/s | - | - |
| 1836274467 | 15.56° C | 66% | 1013.3 hPa | 0 mm | 0 m/s | - | - |
| 1836274137 | 16.67° C | 64% | 1013 hPa | 0 mm | 0 m/s | - | - |
| 1836274107 | 16.11° C | 66% | 1013.2 hPa | 0 mm | 0 m/s | - | - |
| 1778047574 | 11.67° C | 79% | 1013 hPa | 0 mm | 0 m/s | - | - |
| 1778047203 | 11.67° C | 78% | 1012.9 hPa | 0 mm | 0 m/s | - | - |
| 1778046843 | 11.67° C | 78% | 1012.9 hPa | 0 mm | 0 m/s | - | - |
| 1778046483 | 12.22° C | 78% | 1012.9 hPa | 0 mm | 0 m/s | - | - |
| 1778046123 | 12.22° C | 77% | 1012.9 hPa | 0 mm | 0 m/s | - | - |
| 1778045763 | 12.22° C | 77% | 1012.9 hPa | 0 mm | 0 m/s | - | - |
| 1778045403 | 12.78° C | 76% | 1012.8 hPa | 0 mm | 0 m/s | - | - |
| 1778045043 | 12.78° C | 75% | 1012.7 hPa | 0 mm | 0 m/s | - | - |
| 1778044683 | 12.78° C | 75% | 1012.7 hPa | 0 mm | 0 m/s | - | - |
| 1778044323 | 13.33° C | 74% | 1012.7 hPa | 0 mm | 0 m/s | - | - |
| 1778043963 | 13.33° C | 73% | 1012.7 hPa | 0 mm | 0 m/s | - | - |
| 1778043603 | 13.89° C | 73% | 1012.7 hPa | 0 mm | 0 m/s | - | - |
| 1778043243 | 13.89° C | 72% | 1012.6 hPa | 0 mm | 0 m/s | - | - |
| 1778042883 | 14.44° C | 72% | 1012.5 hPa | 0 mm | 0 m/s | - | - |
| 1778042523 | 14.44° C | 70% | 1012.4 hPa | 0 mm | 0 m/s | - | - |
| 1778042163 | 15° C | 69% | 1012.4 hPa | 0 mm | 0 m/s | - | - |
| 1778041803 | 15° C | 69% | 1012.4 hPa | 0 mm | 0 m/s | - | - |
| 1778041443 | 15.56° C | 68% | 1012.3 hPa | 0 mm | 0 m/s | - | - |
| 1778041083 | 16.11° C | 67% | 1012.3 hPa | 0 mm | 0 m/s | - | - |
| 1778040723 | 16.67° C | 66% | 1012.1 hPa | 0 mm | 0 m/s | - | - |
| 1778040363 | 16.67° C | 65% | 1012.1 hPa | 0 mm | 0 m/s | - | - |
* Rain latest hour (hover to see other rain measurements)
** Current wind speed in m/s (hover to see current wind gust speed)